Burlington, NC

10:58 PM EDT on June 25, 2017 (GMT -0400)
Burlington-Alamance Regional

Weather History for KBUY - May, 2014

Change the Weather History Date:

Thursday, May 1, 2014

  Actual Average Record
Temperature  
Mean Temperature 72 °F -  
Max Temperature 81 °F 77 °F 93 °F (1962)
Min Temperature 61 °F 50 °F 40 °F (1963)
Cooling Degree Days 6    
Growing Degree Days 22 (Base 50)    
Moisture  
Dew Point 57 °F    
Average Humidity 64    
Maximum Humidity 84    
Minimum Humidity 38    
Precipitation  
Precipitation 0.00 in - - ()
Sea Level Pressure  
Sea Level Pressure 29.83 in    
Wind  
Wind Speed 9 mph (SSW)    
Max Wind Speed 17 mph    
Max Gust Speed 28 mph    
Visibility 10 miles    
Events      
Averages and records for this station are not official NWS values.
T = Trace of Precipitation, MM = Missing Value Source: NWS Daily Summary

Daily Weather History Graph

Daily Weather History Graph

Search for Another Location

Airport or City:

Trip Planner

Search our weather history database for the weather conditions in past years. The results will help you decide how hot, cold, wet, or windy it might be!

Date:

Astronomy

May. 01, 2014 Rise Set
Actual Time 6:25 AM EDT 8:05 PM EDT
Civil Twilight 5:57 AM EDT 8:32 PM EDT
Nautical Twilight 5:24 AM EDT 9:05 PM EDT
Astronomical Twilight 4:49 AM EDT 9:41 PM EDT
Moon 8:13 AM EDT (5/1) 10:35 PM EDT (5/1)
Length of Visible Light 14h 34m
Length of Day
13h 39m
Waxing Crescent, 6% of the Moon is Illuminated
May 1
Waxing Crescent
May 6
First Quarter
May 14
Full
May 21
Last Quarter
May 28
New

Hourly Weather History & Observations

Time (EDT) Temp. Heat Index Dew Point Humidity Pressure Visibility Wind Dir Wind Speed Gust Speed Precip Events Conditions
12:54 AM 70.0 °F - 64.9 °F 84% 29.87 in 10.0 mi South 8.1 mph - N/A   Overcast
1:54 AM 70.0 °F - 63.0 °F 78% 29.86 in 10.0 mi South 10.4 mph - N/A   Mostly Cloudy
2:54 AM 70.0 °F - 62.1 °F 76% 29.85 in 10.0 mi SSW 9.2 mph - N/A   Overcast
3:54 AM 69.1 °F - 61.0 °F 75% 29.86 in 10.0 mi South 8.1 mph - N/A   Mostly Cloudy
4:54 AM 68.0 °F - 61.0 °F 78% 29.86 in 10.0 mi South 9.2 mph - N/A   Clear
5:54 AM 68.0 °F - 61.0 °F 78% 29.86 in 10.0 mi South 6.9 mph - N/A   Mostly Cloudy
8:23 AM 66.9 °F - 61.0 °F 81% 29.90 in 10.0 mi SW 4.6 mph - N/A   Overcast
8:54 AM 68.0 °F - 60.1 °F 76% 29.88 in 10.0 mi SW 8.1 mph - N/A   Overcast
9:38 AM 69.1 °F - 60.1 °F 73% 29.90 in 10.0 mi SSW 6.9 mph - N/A   Mostly Cloudy
9:54 AM 69.1 °F - 60.1 °F 73% 29.88 in 10.0 mi SW 6.9 mph - N/A   Overcast
10:54 AM 73.0 °F - 59.0 °F 61% 29.86 in 10.0 mi SSW 8.1 mph - N/A   Partly Cloudy
12:54 PM 78.1 °F - 53.1 °F 42% 29.83 in 10.0 mi SW 12.7 mph 20.7 mph N/A   Partly Cloudy
1:54 PM 79.0 °F - 51.1 °F 38% 29.81 in 10.0 mi SW 16.1 mph 27.6 mph N/A   Partly Cloudy
2:54 PM 80.1 °F - 52.0 °F 38% 29.80 in 10.0 mi SSW 17.3 mph 24.2 mph N/A   Partly Cloudy
3:54 PM 80.1 °F 80.1 °F 55.0 °F 42% 29.78 in 10.0 mi SSW 13.8 mph 24.2 mph N/A   Scattered Clouds
4:54 PM 77.0 °F - 53.1 °F 43% 29.77 in 10.0 mi SSW 12.7 mph 23.0 mph N/A   Partly Cloudy
5:54 PM 75.0 °F - 55.0 °F 50% 29.77 in 10.0 mi South 12.7 mph - N/A   Clear
6:54 PM 73.0 °F - 55.9 °F 55% 29.76 in 10.0 mi South 11.5 mph 18.4 mph N/A   Clear
7:54 PM 71.1 °F - 55.9 °F 59% 29.76 in 10.0 mi South 9.2 mph - N/A   Clear
8:54 PM 69.1 °F - 57.0 °F 65% 29.77 in 10.0 mi South 6.9 mph - N/A   Clear
9:54 PM 66.0 °F - 57.0 °F 73% 29.80 in 10.0 mi SW 4.6 mph - N/A   Clear
10:54 PM 63.0 °F - 55.9 °F 78% 29.81 in 10.0 mi SW 6.9 mph - N/A   Clear
11:54 PM 61.0 °F - 46.9 °F 60% 29.82 in 10.0 mi SW 5.8 mph - N/A   Clear